AEROCUBE 8C

导读

AEROCUBE 8C是由美国发射的一颗微小卫星,于2016年11月11日在范登堡发射升空,属于AeroCube系列立方星项目。该卫星由航空航天公司开发,主要开展空间技术演示验证任务,测试新型通信、姿态控制及空间环境探测相关技术,作为美国高校及企业联合研发的小卫星项目,为立方星技术的发展及深空探测小型化应用积累了宝贵经验。

Basic Information
目录编号:
41853
目录名称:
AEROCUBE 8C
国际标识:
2016-067F
轨道中心:
EARTH
卫星名称:
AEROCUBE 8C
卫星全名:
--
卫星状态:
在轨 (已飞行3584 天)
发射日期:
2016-11-11 UTC
国别 :
美国 (US)
星等 :
--
Orbit Information
数据来源 国际轨道数据
星历时间: 2026-09-03T21:59:23+0800
1天前
查看轨道信息
半长轴: 6867.05km
偏心率: 0.0006025
轨道倾角: 98.042°
近地点辐角 135.868°
升交点赤经 119.855°
平近点角 224.304°
近地点: 484.775km
远地点: 493.051km
周期: 94.388分钟
每日圈数: 15.256241
Detailed Information
使用方式:
暂无
2D Orbit Map
3D Orbit Map
Orbit Altitude Analysis Chart
Orbit Inclination Analysis Chart
Orbit Comprehensive Analysis Chart
View Comprehensive Chart
Conjunction Data List
Event ID Objects TCA Miss Dist (km) Collision Risk Probability Collision Risk Index (CRI) Action
CDM_260904-115704-185305-745223
2026-09-04T
11:57:23+0000
1.378 km
极远距离
8.499971E-6 低风险 0.54
CDM_260831-013204-185306-728327
2026-08-31T
01:32:11+0000
1.547 km
极远距离
6.088347E-6 低风险 0.51
CDM_260901-144404-185305-323322
2026-09-01T
14:44:03+0000
2.893 km
极远距离
1.41726E-6 低风险 0.38